�N����,����,�~����,�C��,���x,�C��,����,���ϕ���,�ő�u�ԕ���,�ő厞����,���˗�,�I�_���x,�n�����x,�ő啗���N��,DTYPE
"18/10/21","00:10",0.0,9.3,90.8,1015.6,309.4,1.3,2.1,323.8,0.00,7.9,16.5,"00:00:24",1
"18/10/21","00:20",0.0,9.8,92.0,1015.6,309.7,2.1,3.6,318.2,0.00,8.6,16.2,"00:16:32",1
"18/10/21","00:30",0.0,10.2,91.5,1015.4,329.6,2.6,3.9,343.6,0.00,8.9,16.3,"00:28:00",1
"18/10/21","00:40",0.0,10.2,91.2,1015.6,331.7,2.5,3.5,331.5,0.00,8.9,16.1,"00:36:24",1
"18/10/21","00:50",0.0,10.3,91.1,1015.6,321.6,2.3,3.3,322.9,0.00,9.0,16.1,"00:47:20",1
"18/10/21","01:00",0.0,10.4,90.9,1015.9,319.6,2.1,2.9,326.8,0.00,9.0,16.1,"00:50:16",1
"18/10/21","01:10",0.0,10.4,90.6,1015.9,320.4,1.7,2.7,334.5,0.00,9.0,16.0,"01:01:20",1
"18/10/21","01:20",0.0,10.4,90.2,1015.9,324.0,1.7,2.7,327.0,0.00,8.9,16.1,"01:13:52",1
"18/10/21","01:30",0.0,10.2,90.3,1015.6,323.2,2.2,2.8,330.8,0.00,8.7,16.0,"01:28:16",1
"18/10/21","01:40",0.0,10.1,90.0,1015.6,319.9,2.0,2.8,329.0,0.00,8.6,16.0,"01:31:04",1
"18/10/21","01:50",0.0,9.9,90.7,1016.1,306.2,1.1,1.9,317.2,0.00,8.5,16.0,"01:40:56",1
"18/10/21","02:00",0.0,9.5,90.7,1016.1,314.0,1.6,2.4,317.3,0.00,8.1,16.0,"01:54:56",1
"18/10/21","02:10",0.0,9.3,91.3,1016.4,310.7,0.5,1.4,320.2,0.00,8.0,16.1,"02:09:20",1
"18/10/21","02:20",0.0,9.0,92.3,1016.1,315.6,2.0,2.7,321.3,0.00,7.9,15.8,"02:15:36",1
"18/10/21","02:30",0.0,8.9,92.5,1016.4,317.4,1.6,2.2,310.2,0.00,7.8,15.7,"02:27:52",1
"18/10/21","02:40",0.0,8.6,93.4,1016.4,303.3,1.8,2.8,315.3,0.00,7.6,16.1,"02:30:56",1
"18/10/21","02:50",0.0,8.5,93.9,1015.9,311.3,1.8,2.7,321.0,0.00,7.6,15.8,"02:45:44",1
"18/10/21","03:00",0.0,8.2,94.3,1016.4,298.0,1.2,2.1,306.6,0.00,7.4,15.8,"02:52:48",1
"18/10/21","03:10",0.0,8.1,94.9,1015.6,295.5,1.2,1.9,266.3,0.00,7.4,15.7,"03:06:08",1
"18/10/21","03:20",0.0,7.9,95.4,1015.9,299.8,1.7,2.6,309.4,0.00,7.3,15.6,"03:16:48",1
"18/10/21","03:30",0.0,7.7,95.4,1016.4,304.9,1.6,2.4,318.9,0.00,7.1,15.5,"03:20:08",1
"18/10/21","03:40",0.0,7.6,95.7,1016.1,298.8,1.7,2.2,315.6,0.00,7.0,15.4,"03:31:52",1
"18/10/21","03:50",0.0,7.9,96.6,1016.1,304.5,2.1,3.3,326.0,0.00,7.4,15.3,"03:49:44",1
"18/10/21","04:00",0.0,8.0,96.2,1016.4,290.9,1.5,2.4,313.8,0.00,7.5,15.4,"03:52:08",1
"18/10/21","04:10",0.0,7.9,96.5,1015.9,288.6,1.7,2.4,310.4,0.00,7.4,15.4,"04:08:00",1
"18/10/21","04:20",0.0,7.8,96.4,1016.4,284.1,1.6,1.8,281.5,0.00,7.3,15.5,"04:16:48",1
"18/10/21","04:30",0.0,7.7,96.6,1016.6,306.2,1.8,2.2,312.4,0.00,7.2,15.2,"04:25:44",1
"18/10/21","04:40",0.0,7.5,97.0,1016.4,301.7,1.8,2.5,308.5,0.00,7.1,15.2,"04:34:08",1
"18/10/21","04:50",0.0,7.7,96.8,1016.6,299.8,2.0,3.3,326.4,0.00,7.3,15.3,"04:47:36",1
"18/10/21","05:00",0.0,7.8,97.3,1016.6,288.4,1.8,2.5,324.6,0.00,7.4,15.2,"04:55:12",1
"18/10/21","05:10",0.0,7.8,96.7,1016.4,284.5,1.5,2.0,317.1,0.00,7.3,15.1,"05:09:44",1
"18/10/21","05:20",0.0,7.4,96.8,1016.6,302.3,1.6,2.6,320.7,0.00,7.0,15.2,"05:19:20",1
"18/10/21","05:30",0.0,7.0,96.7,1016.6,309.9,1.8,2.8,323.2,0.00,6.6,15.1,"05:22:32",1
"18/10/21","05:40",0.0,6.9,97.8,1016.6,304.8,2.0,2.5,318.8,0.00,6.6,15.0,"05:30:08",1
"18/10/21","05:50",0.0,7.3,98.5,1016.6,316.7,1.7,2.9,323.5,0.00,7.1,14.9,"05:42:16",1
"18/10/21","06:00",0.0,7.2,97.0,1016.8,295.3,1.5,1.8,295.6,0.00,6.8,15.2,"05:58:48",1
"18/10/21","06:10",0.0,7.0,98.5,1016.8,311.1,2.0,2.9,320.9,0.00,6.8,14.9,"06:06:56",1
"18/10/21","06:20",0.0,7.0,97.0,1016.8,302.1,1.8,2.4,310.9,0.00,6.6,14.8,"06:13:12",1
"18/10/21","06:30",0.0,7.0,98.7,1016.8,295.2,1.7,2.7,321.5,0.00,6.8,14.9,"06:23:52",1
"18/10/21","06:40",0.0,7.4,97.5,1016.6,293.9,1.8,2.9,316.5,0.00,7.1,14.7,"06:39:04",1
"18/10/21","06:50",0.0,7.6,98.5,1016.8,290.6,1.6,2.9,317.2,0.00,7.4,14.9,"06:43:12",1
"18/10/21","07:00",0.0,8.0,97.4,1017.1,294.4,1.0,1.7,300.6,0.00,7.7,14.8,"06:54:00",1
"18/10/21","07:10",0.0,8.4,98.2,1017.1,287.3,0.7,1.7,314.5,0.00,8.2,14.7,"07:04:32",1
"18/10/21","07:20",0.0,8.9,97.4,1017.3,283.7,0.5,1.7,309.5,0.01,8.6,14.8,"07:10:40",1
"18/10/21","07:30",0.0,9.5,97.5,1017.5,294.8,1.0,1.9,316.3,0.01,9.2,14.7,"07:28:00",1
"18/10/21","07:40",0.0,9.8,97.2,1017.1,328.6,1.6,2.5,334.0,0.02,9.4,14.6,"07:33:36",1
"18/10/21","07:50",0.0,10.5,96.5,1017.5,318.3,0.6,2.5,334.5,0.03,10.0,14.8,"07:40:08",1
"18/10/21","08:00",0.0,10.8,95.3,1017.8,265.2,0.3,0.6,310.7,0.05,10.1,14.6,"07:50:08",1
"18/10/21","08:10",0.0,11.4,93.0,1018.0,277.8,0.7,1.9,322.3,0.06,10.3,15.0,"08:02:40",1
"18/10/21","08:20",0.0,11.9,89.7,1018.2,250.7,0.6,1.0,226.1,0.08,10.3,15.0,"08:19:12",1
"18/10/21","08:30",0.0,12.2,88.6,1018.2,220.1,0.6,1.6,147.2,0.13,10.4,14.9,"08:21:12",1
"18/10/21","08:40",0.0,12.5,86.2,1018.5,206.0,0.6,1.4,102.1,0.17,10.3,15.3,"08:35:20",1
"18/10/21","08:50",0.0,13.2,84.1,1018.7,277.2,0.8,1.6,242.1,0.21,10.6,15.1,"08:44:48",1
"18/10/21","09:00",0.0,13.8,82.7,1018.7,211.4,0.5,1.3,83.8,0.23,11.0,15.4,"08:58:16",1
"18/10/21","09:10",0.0,13.6,81.8,1018.7,219.4,0.8,2.1,234.6,0.26,10.6,15.6,"09:04:08",1
"18/10/21","09:20",0.0,13.7,81.6,1019.0,245.3,1.0,1.7,242.0,0.28,10.7,15.6,"09:14:48",1
"18/10/21","09:30",0.0,14.5,80.0,1018.7,230.3,0.8,1.9,234.2,0.30,11.1,15.7,"09:23:44",1
"18/10/21","09:40",0.0,14.8,77.9,1018.7,280.6,0.8,2.6,209.0,0.32,11.0,15.8,"09:39:44",1
"18/10/21","09:50",0.0,15.0,78.3,1018.2,227.8,0.7,1.7,210.1,0.35,11.3,15.8,"09:40:08",1
"18/10/21","10:00",0.0,15.5,77.4,1017.5,253.7,0.5,1.6,311.9,0.36,11.6,16.3,"09:54:48",1
"18/10/21","10:10",0.0,15.8,74.1,1017.8,251.9,0.8,2.0,230.1,0.38,11.2,16.5,"10:01:04",1
"18/10/21","10:20",0.0,16.2,72.7,1017.3,196.8,1.0,2.9,165.3,0.40,11.3,16.3,"10:16:08",1
"18/10/21","10:30",0.0,16.7,70.3,1017.1,155.5,1.0,2.6,202.9,0.42,11.3,16.8,"10:20:24",1
"18/10/21","10:40",0.0,17.7,68.8,1016.8,146.8,1.1,2.8,196.5,0.43,11.9,16.6,"10:39:52",1
"18/10/21","10:50",0.0,17.7,68.4,1016.8,155.9,1.1,2.5,209.5,0.44,11.9,16.9,"10:40:32",1
"18/10/21","11:00",0.0,18.1,67.4,1016.6,176.3,1.3,2.6,220.7,0.45,12.0,17.3,"10:52:40",1
"18/10/21","11:10",0.0,19.0,67.3,1016.1,207.9,1.0,2.6,224.0,0.46,12.8,17.3,"11:05:20",1
"18/10/21","11:20",0.0,19.0,63.6,1016.1,141.1,1.2,3.1,112.2,0.47,12.0,17.6,"11:16:24",1
"18/10/21","11:30",0.0,19.2,62.7,1015.9,151.4,0.8,2.0,128.0,0.48,12.0,17.8,"11:28:32",1
"18/10/21","11:40",0.0,19.7,63.1,1015.9,200.6,1.1,2.7,120.7,0.48,12.5,18.1,"11:32:40",1
"18/10/21","11:50",0.0,19.7,60.0,1015.2,162.8,1.1,2.9,151.1,0.49,11.8,18.2,"11:40:32",1
"18/10/21","12:00",0.0,20.4,59.4,1015.4,184.5,1.2,2.9,124.6,0.49,12.3,18.2,"11:59:36",1
"18/10/21","12:10",0.0,20.9,57.1,1014.7,176.8,0.8,2.9,210.0,0.49,12.1,18.6,"12:06:48",1
"18/10/21","12:20",0.0,20.9,56.5,1014.7,155.3,1.2,3.2,112.7,0.49,12.0,18.8,"12:19:04",1
"18/10/21","12:30",0.0,20.8,53.6,1014.5,214.8,2.5,4.1,232.3,0.49,11.1,19.0,"12:21:20",1
"18/10/21","12:40",0.0,22.1,51.1,1014.2,221.5,1.5,3.7,218.1,0.48,11.6,19.1,"12:30:48",1
"18/10/21","12:50",0.0,22.1,49.2,1014.0,115.5,1.1,4.0,187.0,0.48,11.0,19.4,"12:47:36",1
"18/10/21","13:00",0.0,22.1,49.2,1014.0,352.7,1.2,2.9,334.7,0.47,11.0,19.3,"12:53:44",1
"18/10/21","13:10",0.0,22.0,46.9,1013.5,4.3,1.7,4.2,349.2,0.46,10.2,19.4,"13:00:56",1
"18/10/21","13:20",0.0,22.3,47.9,1013.5,347.8,2.1,5.6,339.8,0.45,10.8,19.4,"13:18:32",1
"18/10/21","13:30",0.0,21.7,46.0,1013.3,337.5,2.8,4.9,341.6,0.44,9.6,19.7,"13:29:36",1
"18/10/21","13:40",0.0,22.9,48.9,1013.5,331.7,1.8,3.4,345.2,0.43,11.6,19.9,"13:31:44",1
"18/10/21","13:50",0.0,22.9,49.9,1013.3,341.8,2.0,4.1,349.2,0.42,11.9,19.7,"13:42:08",1
"18/10/21","14:00",0.0,22.5,46.9,1012.8,333.4,2.1,4.3,337.8,0.40,10.6,19.9,"13:54:32",1
"18/10/21","14:10",0.0,22.2,46.6,1013.0,328.7,2.5,5.2,331.4,0.38,10.3,19.9,"14:07:52",1
"18/10/21","14:20",0.0,22.1,48.4,1013.0,333.6,2.8,6.2,332.7,0.37,10.8,19.8,"14:16:48",1
"18/10/21","14:30",0.0,22.1,46.5,1013.0,334.3,3.2,5.8,344.3,0.35,10.2,19.8,"14:29:28",1
"18/10/21","14:40",0.0,22.3,47.7,1013.0,342.8,2.6,4.4,334.2,0.33,10.7,19.8,"14:36:40",1
"18/10/21","14:50",0.0,22.1,47.0,1013.0,350.7,2.2,4.2,349.9,0.30,10.3,20.0,"14:41:20",1
"18/10/21","15:00",0.0,21.9,46.8,1013.3,342.6,2.3,4.8,352.7,0.28,10.1,20.1,"14:56:48",1
"18/10/21","15:10",0.0,21.9,46.4,1012.8,349.0,2.5,5.5,351.3,0.26,9.9,19.9,"15:00:48",1
"18/10/21","15:20",0.0,21.6,47.3,1013.3,347.9,2.6,5.6,351.1,0.23,10.0,20.1,"15:18:32",1
"18/10/21","15:30",0.0,21.5,48.1,1013.3,349.8,3.0,6.0,2.7,0.21,10.1,20.1,"15:20:40",1
"18/10/21","15:40",0.0,21.2,46.8,1013.5,344.5,3.1,5.4,345.7,0.18,9.4,19.8,"15:31:20",1
"18/10/21","15:50",0.0,21.1,49.1,1013.5,342.6,3.0,6.3,346.7,0.15,10.1,19.7,"15:44:08",1
"18/10/21","16:00",0.0,21.0,48.6,1013.5,339.2,3.5,6.5,349.0,0.13,9.8,19.7,"15:50:32",1
"18/10/21","16:10",0.0,20.7,50.3,1013.8,339.9,3.5,6.8,330.8,0.11,10.0,19.8,"16:07:04",1
"18/10/21","16:20",0.0,20.3,52.1,1013.8,338.9,3.5,6.6,347.3,0.08,10.2,19.6,"16:12:00",1
"18/10/21","16:30",0.0,20.0,53.5,1013.8,342.2,3.6,7.5,343.1,0.06,10.3,19.7,"16:28:16",1
"18/10/21","16:40",0.0,19.6,55.9,1013.8,338.6,3.9,7.7,348.1,0.04,10.6,19.4,"16:38:48",1
"18/10/21","16:50",0.0,19.3,57.5,1013.5,334.1,3.5,6.2,352.9,0.02,10.7,19.4,"16:40:08",1
"18/10/21","17:00",0.0,18.8,58.3,1014.0,341.7,2.7,4.4,348.2,0.01,10.5,19.3,"16:58:40",1
"18/10/21","17:10",0.0,18.3,60.1,1014.5,343.5,2.6,5.6,344.8,0.00,10.5,19.3,"17:00:02",1
"18/10/21","17:20",0.0,18.0,61.1,1014.7,332.9,3.1,5.1,333.6,0.00,10.4,19.0,"17:16:32",1
"18/10/21","17:30",0.0,17.8,61.5,1014.9,324.6,3.0,6.0,321.7,0.00,10.3,18.8,"17:26:32",1
"18/10/21","17:40",0.0,17.4,62.6,1014.9,327.1,3.0,5.6,319.9,0.00,10.2,19.0,"17:33:36",1
"18/10/21","17:50",0.0,17.2,63.5,1014.9,325.5,2.8,5.0,34.4,0.00,10.3,18.7,"17:47:12",1
"18/10/21","18:00",0.0,16.9,63.7,1015.4,318.6,2.3,6.3,330.9,0.00,10.0,18.8,"17:52:16",1
"18/10/21","18:10",0.0,16.6,65.7,1015.9,313.9,1.7,3.2,330.3,0.00,10.2,18.8,"18:09:36",1
"18/10/21","18:20",0.0,16.2,67.2,1015.9,302.6,1.6,3.2,351.3,0.00,10.2,18.5,"18:11:36",1
"18/10/21","18:30",0.0,15.6,68.8,1015.9,290.4,1.3,2.9,326.7,0.00,9.9,18.6,"18:22:48",1
"18/10/21","18:40",0.0,15.4,71.6,1015.6,318.4,1.7,3.2,323.0,0.00,10.3,18.4,"18:33:36",1
"18/10/21","18:50",0.0,15.2,72.3,1015.9,332.8,2.0,3.3,340.5,0.00,10.3,18.2,"18:45:52",1
"18/10/21","19:00",0.0,14.9,73.3,1016.1,322.5,1.7,2.7,325.7,0.00,10.2,18.1,"18:52:16",1
"18/10/21","19:10",0.0,14.6,75.2,1015.9,303.8,1.5,3.6,334.1,0.00,10.3,18.2,"19:05:40",1
"18/10/21","19:20",0.0,15.1,76.0,1015.9,317.0,2.5,4.5,332.9,0.00,10.9,18.1,"19:19:44",1
"18/10/21","19:30",0.0,15.4,73.5,1016.6,324.1,3.2,5.7,335.1,0.00,10.7,18.0,"19:21:36",1
"18/10/21","19:40",0.0,15.6,72.5,1016.1,326.1,3.6,5.8,317.8,0.00,10.7,17.8,"19:33:52",1
"18/10/21","19:50",0.0,15.5,72.9,1016.1,331.7,2.6,4.7,312.5,0.00,10.7,17.9,"19:42:48",1
"18/10/21","20:00",0.0,15.2,73.5,1016.1,334.0,1.8,3.7,336.3,0.00,10.5,17.9,"19:50:48",1
"18/10/21","20:10",0.0,14.9,75.2,1015.9,334.1,2.6,4.9,334.0,0.00,10.6,17.7,"20:04:08",1
"18/10/21","20:20",0.0,14.7,76.6,1016.4,331.3,2.5,5.6,332.5,0.00,10.7,17.7,"20:12:32",1
"18/10/21","20:30",0.0,14.6,76.9,1015.9,328.2,2.2,3.9,335.7,0.00,10.6,18.0,"20:21:12",1
"18/10/21","20:40",0.0,14.6,77.5,1016.1,318.7,1.8,4.3,329.9,0.00,10.8,17.5,"20:30:08",1
"18/10/21","20:50",0.0,14.4,77.2,1016.1,298.9,1.0,2.5,297.2,0.00,10.5,17.7,"20:42:24",1
"18/10/21","21:00",0.0,13.8,79.4,1016.4,272.8,0.6,1.1,296.6,0.00,10.3,17.5,"20:52:08",1
"18/10/21","21:10",0.0,13.5,81.0,1016.6,304.2,1.1,2.5,326.6,0.00,10.3,17.6,"21:02:00",1
"18/10/21","21:20",0.0,13.0,81.9,1016.4,285.8,1.0,1.7,304.5,0.00,10.0,17.4,"21:15:44",1
"18/10/21","21:30",0.0,12.7,84.0,1015.9,274.9,1.2,2.1,318.8,0.00,10.1,17.4,"21:25:02",1
"18/10/21","21:40",0.0,13.1,85.1,1016.4,255.7,1.5,2.0,279.7,0.00,10.7,17.2,"21:39:44",1
"18/10/21","21:50",0.0,13.2,84.7,1016.4,290.1,1.3,1.9,307.1,0.00,10.7,17.1,"21:41:10",1
"18/10/21","22:00",0.0,13.1,84.2,1016.4,295.3,1.6,2.1,317.5,0.00,10.5,17.1,"21:53:28",1
"18/10/21","22:10",0.0,12.7,84.2,1016.8,298.6,1.3,1.8,310.2,0.00,10.1,16.9,"22:08:00",1
"18/10/21","22:20",0.0,12.3,85.9,1016.6,308.3,1.6,1.9,324.4,0.00,10.1,16.9,"22:12:04",1
"18/10/21","22:30",0.0,12.3,87.1,1016.6,308.4,1.8,2.8,318.0,0.00,10.3,16.9,"22:24:28",1
"18/10/21","22:40",0.0,12.5,87.6,1016.8,305.5,2.1,3.2,323.5,0.00,10.5,16.8,"22:39:20",1
"18/10/21","22:50",0.0,12.8,86.7,1016.6,320.0,2.5,3.2,324.3,0.00,10.7,16.8,"22:40:42",1
"18/10/21","23:00",0.0,12.9,86.6,1016.6,329.4,2.7,4.1,334.7,0.00,10.8,16.6,"22:54:54",1
"18/10/21","23:10",0.0,12.8,86.1,1016.6,324.5,2.5,4.1,322.1,0.00,10.6,16.5,"23:04:24",1
"18/10/21","23:20",0.0,12.7,86.3,1016.6,324.3,2.2,3.6,318.0,0.00,10.5,16.7,"23:10:50",1
"18/10/21","23:30",0.0,12.5,86.7,1016.4,329.9,2.5,4.0,325.0,0.00,10.4,16.5,"23:22:06",1
"18/10/21","23:40",0.0,12.4,87.3,1016.6,320.6,2.5,3.4,316.5,0.00,10.4,16.7,"23:31:04",1
"18/10/21","23:50",0.0,12.3,87.8,1016.8,322.9,2.2,3.4,333.1,0.00,10.4,16.7,"23:46:52",1
"18/10/21","24:00",0.0,12.0,87.7,1017.1,295.3,1.6,3.1,324.6,0.00,10.1,16.6,"23:52:18",1
